W4BOD Weather Reports


time (UTC)temp
C
wind
direction
speed
KPH
gust
KPH
rain 1hr
cm
rain 24hr
cm
rain mn
cm
humidity
%
barometer
mb
20260906022627 26 304 1.6 3.2 0.00 0.05 0.05 86 1011.6
20260906022123 25 331 0.0 3.2 0.00 0.05 0.05 90 1011.8
20260906021619 26 283 3.2 4.8 0.00 0.05 0.05 92 1011.7
20260906021117 26 336 1.6 1.6 0.00 0.05 0.05 88 1011.6
20260906020617 26 337 0.0 1.6 0.00 0.05 0.05 86 1011.9
20260906020112 27 337 0.0 0.0 0.30 0.05 0.05 85 1011.5
20260906015607 28 336 1.6 1.6 0.18 0.03 0.03 82 1011.7
20260906015105 28 15 3.2 3.2 0.00 0.00 0.00 78 1011.7
20260906014600 30 50 1.6 3.2 0.00 0.00 0.00 71 1011.6
20260906014056 30 17 3.2 4.8 0.00 0.00 0.00 70 1011.4
20260906013551 30 17 4.8 8.0 0.00 0.00 0.00 68 1011.5
20260906013047 29 273 1.6 4.8 0.00 0.00 0.00 69 1011.3
20260906012542 29 276 4.8 8.0 0.00 0.00 0.00 70 1011.2
20260906012041 28 256 3.2 3.2 0.00 0.00 0.00 72 1011.3
20260906011538 28 281 1.6 3.2 0.00 0.00 0.00 72 1011.3
20260906011037 28 311 1.6 1.6 0.00 0.00 0.00 72 1011.5
20260906010533 29 338 0.0 0.0 0.00 0.00 0.00 71 1011.4
20260906010029 29 323 0.0 1.6 0.00 0.00 0.00 71 1011.0
20260906005528 29 353 0.0 0.0 0.00 0.00 0.00 70 1011.0
20260906005027 29 322 1.6 1.6 0.00 0.00 0.00 70 1011.1
20260906004526 30 339 0.0 1.6 0.00 0.00 0.00 70 1011.1
20260906004022 30 295 1.6 3.2 0.00 0.00 0.00 69 1011.1
20260906003517 30 30 1.6 3.2 0.00 0.00 0.00 67 1011.3
20260906003013 30 15 1.6 1.6 0.00 0.00 0.00 67 1011.6
20260906002507 30 294 1.6 3.2 0.00 0.00 0.00 67 1011.6
20260906002002 31 58 1.6 3.2 0.00 0.00 0.00 67 1011.9
20260906001458 31 57 1.6 8.0 0.00 0.00 0.00 67 1011.8
20260906000952 31 16 1.6 8.0 0.00 0.00 0.00 66 1011.5
20260906000448 32 307 1.6 3.2 0.00 0.00 0.00 68 1011.6
20260905235941 32 317 4.8 11.3 0.00 0.00 0.00 66 1011.9
20260905235436 33 40 4.8 9.7 0.00 0.00 0.00 66 1011.7
20260905234931 33 79 4.8 9.7 0.00 0.00 0.00 66 1011.4
20260905234427 34 33 1.6 12.9 0.00 0.00 0.00 66 1011.2
20260905233921 35 68 3.2 4.8 0.00 0.00 0.00 63 1011.4
20260905233417 35 353 0.0 0.0 0.00 0.00 0.00 63 1011.0
20260905232915 35 312 0.0 1.6 0.00 0.00 0.00 63 1010.8
20260905232412 35 316 1.6 1.6 0.00 0.00 0.00 63 1010.8
20260905231906 35 347 0.0 1.6 0.00 0.00 0.00 63 1010.9
20260905231402 35 293 1.6 3.2 0.00 0.00 0.00 64 1010.8
20260905230853 35 16 1.6 1.6 0.00 0.00 0.00 67 1010.6
20260905230350 35 266 1.6 3.2 0.00 0.00 0.00 62 1010.6
20260905225850 35 2 0.0 1.6 0.00 0.00 0.00 63 1010.5
20260905225345 35 31 1.6 1.6 0.00 0.00 0.00 61 1010.6
20260905224840 36 315 0.0 1.6 0.00 0.00 0.00 61 1010.9
20260905224335 36 285 1.6 3.2 0.00 0.00 0.00 59 1010.8
20260905223830 37 170 1.6 3.2 0.00 0.00 0.00 55 1010.9
20260905223327 37 314 1.6 4.8 0.00 0.00 0.00 56 1010.8
20260905222817 37 6 1.6 3.2 0.00 0.00 0.00 54 1010.8
20260905222316 37 338 0.0 8.0 0.00 0.00 0.00 54 1010.8
20260905221812 37 43 1.6 8.0 0.00 0.00 0.00 53 1010.6
20260905221309 38 10 4.8 4.8 0.00 0.00 0.00 51 1010.8
20260905220804 38 346 1.6 1.6 0.00 0.00 0.00 47 1010.6
20260905220300 38 323 1.6 1.6 0.00 0.00 0.00 48 1010.6
20260905215759 38 345 0.0 1.6 0.00 0.00 0.00 49 1010.7
20260905215255 38 311 1.6 1.6 0.00 0.00 0.00 52 1010.7
20260905214751 38 297 1.6 4.8 0.00 0.00 0.00 47 1010.5
20260905214247 38 320 0.0 3.2 0.00 0.00 0.00 49 1010.7
20260905213742 38 318 1.6 1.6 0.00 0.00 0.00 52 1010.7
20260905213238 38 295 3.2 4.8 0.00 0.00 0.00 52 1010.7
20260905212733 38 14 1.6 1.6 0.00 0.00 0.00 49 1010.6
20260905212232 38 317 0.0 3.2 0.00 0.00 0.00 50 1010.9
20260905211731 38 303 1.6 3.2 0.00 0.00 0.00 48 1010.9
20260905211227 36 304 0.0 3.2 0.00 0.00 0.00 53 1010.9
20260905210724 37 272 3.2 8.0 0.00 0.00 0.00 51 1011.2
20260905210223 38 287 1.6 1.6 0.00 0.00 0.00 47 1010.9
20260905205722 38 310 1.6 8.0 0.00 0.00 0.00 48 1011.1
20260905205216 38 326 1.6 3.2 0.00 0.00 0.00 48 1011.2
20260905204716 38 344 1.6 12.9 0.00 0.00 0.00 47 1011.2
20260905204212 39 292 1.6 4.8 0.00 0.00 0.00 45 1011.1
20260905203706 39 225 8.0 11.3 0.00 0.00 0.00 46 1011.2
20260905203202 38 319 0.0 3.2 0.00 0.00 0.00 50 1011.3
20260905202657 39 356 3.2 4.8 0.00 0.00 0.00 46 1011.5
20260905202152 39 355 1.6 1.6 0.00 0.00 0.00 45 1011.4
20260905201648 38 321 3.2 3.2 0.00 0.00 0.00 46 1011.6
20260905201147 37 268 3.2 4.8 0.00 0.00 0.00 49 1011.4
20260905200643 37 315 1.6 3.2 0.00 0.00 0.00 49 1011.7
20260905200138 37 320 0.0 3.2 0.00 0.00 0.00 50 1011.8
20260905195636 38 304 1.6 8.0 0.00 0.00 0.00 50 1011.9
20260905195132 38 239 6.4 9.7 0.00 0.00 0.00 49 1011.9
20260905194626 37 317 0.0 4.8 0.00 0.00 0.00 48 1012.2
20260905194126 38 323 1.6 9.7 0.00 0.00 0.00 50 1012.2
20260905193621 38 307 3.2 3.2 0.00 0.00 0.00 48 1012.1
20260905193116 38 336 4.8 12.9 0.00 0.00 0.00 52 1012.2
20260905192612 37 260 4.8 9.7 0.00 0.00 0.00 51 1012.1
20260905192108 37 320 3.2 9.7 0.00 0.00 0.00 53 1012.1
20260905191606 37 213 4.8 4.8 0.00 0.00 0.00 53 1012.3
20260905191105 37 237 1.6 3.2 0.00 0.00 0.00 52 1012.4
20260905190604 37 267 4.8 8.0 0.00 0.00 0.00 53 1012.6
20260905185602 36 345 3.2 4.8 0.00 0.00 0.00 53 1012.6
20260905185056 36 202 6.4 9.7 0.00 0.00 0.00 53 1012.5
20260905184551 37 291 8.0 8.0 0.00 0.00 0.00 51 1012.7
20260905184049 38 251 1.6 9.7 0.00 0.00 0.00 54 1012.8
20260905183544 37 147 4.8 9.7 0.00 0.00 0.00 56 1012.7
20260905183039 37 267 4.8 9.7 0.00 0.00 0.00 61 1013.1
20260905182538 36 265 6.4 8.0 0.00 0.00 0.00 57 1013.1
20260905182033 36 297 4.8 12.9 0.00 0.00 0.00 58 1013.3
20260905181528 37 271 4.8 11.3 0.00 0.00 0.00 57 1013.4
20260905181027 36 285 3.2 4.8 0.00 0.00 0.00 58 1013.4
20260905180521 37 268 4.8 8.0 0.00 0.00 0.00 57 1013.2
20260905180012 37 261 8.0 11.3 0.00 0.00 0.00 56 1013.5
20260905175511 36 263 6.4 11.3 0.00 0.00 0.00 58 1013.5
20260905175007 36 255 4.8 8.0 0.00 0.00 0.00 59 1013.5
20260905174502 37 283 1.6 3.2 0.00 0.00 0.00 57 1013.6
20260905173957 37 344 0.0 1.6 0.00 0.00 0.00 58 1013.6
20260905173453 36 323 1.6 4.8 0.00 0.00 0.00 61 1013.6
20260905172949 36 257 4.8 8.0 0.00 0.00 0.00 62 1013.9
20260905172447 36 295 3.2 8.0 0.00 0.00 0.00 62 1014.0
20260905171943 36 352 0.0 3.2 0.00 0.00 0.00 59 1014.0
20260905171439 36 21 1.6 3.2 0.00 0.00 0.00 60 1013.9
20260905170935 35 315 0.0 3.2 0.00 0.00 0.00 63 1014.0
20260905170431 35 258 8.0 9.7 0.00 0.00 0.00 67 1014.1
20260905165931 35 248 4.8 9.7 0.00 0.00 0.00 65 1014.1
20260905165426 35 303 1.6 8.0 0.00 0.00 0.00 63 1014.1
20260905164920 35 311 1.6 4.8 0.00 0.00 0.00 64 1014.3
20260905164414 35 275 1.6 4.8 0.00 0.00 0.00 64 1014.1
20260905163910 35 254 3.2 3.2 0.00 0.00 0.00 66 1014.5
20260905163407 33 309 1.6 8.0 0.00 0.00 0.00 69 1014.5
20260905162902 33 270 3.2 4.8 0.00 0.00 0.00 68 1014.6
20260905162356 33 297 1.6 3.2 0.00 0.00 0.00 69 1014.6
20260905161851 33 249 8.0 9.7 0.00 0.00 0.00 69 1014.7
20260905161350 33 327 0.0 0.0 0.00 0.00 0.00 69 1014.6
20260905160849 33 344 0.0 4.8 0.00 0.00 0.00 69 1014.9
20260905160343 33 292 4.8 4.8 0.00 0.00 0.00 68 1014.8
20260905155837 32 4 1.6 1.6 0.00 0.00 0.00 70 1014.9
20260905155336 32 293 3.2 4.8 0.00 0.00 0.00 74 1015.1
20260905154831 32 277 3.2 8.0 0.00 0.00 0.00 73 1015.0
20260905154326 32 324 1.6 4.8 0.00 0.00 0.00 74 1015.1
20260905153822 31 110 1.6 3.2 0.00 0.00 0.00 77 1015.1
20260905153318 30 223 3.2 3.2 0.00 0.00 0.00 80 1015.2
20260905152818 30 278 4.8 4.8 0.00 0.00 0.00 81 1015.3
20260905152317 30 282 0.0 3.2 0.00 0.00 0.00 81 1015.2
20260905151812 30 315 1.6 3.2 0.00 0.00 0.00 83 1015.1
20260905151307 30 316 1.6 1.6 0.00 0.00 0.00 86 1015.1
20260905150802 29 309 1.6 1.6 0.00 0.00 0.00 87 1015.3
20260905150302 28 304 1.6 3.2 0.00 0.00 0.00 89 1015.1
20260905145759 28 345 0.0 3.2 0.00 0.00 0.00 89 1015.1
20260905145254 28 342 0.0 1.6 0.00 0.00 0.00 90 1015.3
20260905144752 28 291 3.2 3.2 0.00 0.00 0.00 89 1015.2
20260905144248 28 328 0.0 1.6 0.00 0.00 0.00 90 1015.2
20260905143746 28 338 0.0 0.0 0.00 0.00 0.00 90 1015.1
20260905143241 28 339 1.6 1.6 0.00 0.00 0.00 90 1015.2
20260905142740 28 325 0.0 3.2 0.00 0.00 0.00 91 1015.5
20260905142234 28 312 1.6 3.2 0.00 0.00 0.00 91 1015.5
20260905141730 28 328 0.0 1.6 0.00 0.00 0.00 91 1015.4
20260905141225 28 325 0.0 1.6 0.00 0.00 0.00 91 1015.2
20260905140721 28 334 0.0 1.6 0.00 0.00 0.00 92 1015.4
20260905140215 27 345 0.0 0.0 0.00 0.00 0.00 92 1015.3
20260905135709 27 347 0.0 0.0 0.00 0.00 0.00 92 1015.3
20260905135206 27 333 0.0 0.0 0.00 0.00 0.00 92 1015.4
20260905134704 27 333 0.0 0.0 0.00 0.00 0.00 93 1015.2
20260905134204 27 333 0.0 0.0 0.00 0.00 0.00 93 1015.2
20260905133659 27 334 0.0 0.0 0.00 0.00 0.00 93 1015.3
20260905133154 27 330 0.0 0.0 0.00 0.00 0.00 93 1015.4
20260905132653 27 330 0.0 0.0 0.00 0.00 0.00 93 1015.4
20260905132149 27 330 0.0 0.0 0.00 0.00 0.00 94 1015.3
20260905131644 27 328 0.0 0.0 0.00 0.00 0.00 94 1015.4
20260905131138 26 330 0.0 0.0 0.00 0.00 0.00 95 1015.5
20260905130632 26 329 0.0 1.6 0.00 0.00 0.00 95 1015.4
20260905130126 26 341 0.0 0.0 0.00 0.00 0.00 96 1015.5
20260905125621 26 340 0.0 0.0 0.00 0.00 0.00 97 1015.4
20260905125117 26 335 0.0 0.0 0.00 0.00 0.00 98 1015.4
20260905124613 26 335 0.0 0.0 0.00 0.00 0.00 98 1015.4
20260905124108 26 335 0.0 0.0 0.00 0.00 0.00 99 1015.3
20260905123558 26 335 0.0 0.0 0.00 0.00 0.00 99 1015.4
20260905123055 25 335 0.0 0.0 0.00 0.00 0.00 99 1015.2
20260905122555 25 3 0.0 0.0 0.00 0.00 0.00 99 1015.3
20260905122055 25 3 0.0 0.0 0.00 0.00 0.00 99 1015.3
20260905121550 25 3 0.0 0.0 0.00 0.00 0.00 99 1015.1
20260905121045 25 3 0.0 0.0 0.00 0.00 0.00 99 1015.1
20260905120544 25 3 0.0 0.0 0.00 0.00 0.00 99 1015.2
20260905120040 25 3 0.0 0.0 0.00 0.00 0.00 99 1015.0
20260905115538 25 3 0.0 0.0 0.00 0.00 0.00 99 1015.1
20260905115033 25 3 0.0 0.0 0.00 0.00 0.00 99 1015.1
20260905114533 25 3 0.0 0.0 0.00 0.00 0.00 99 1014.9
20260905114032 25 3 0.0 0.0 0.00 0.00 0.00 99 1015.0
20260905113527 25 3 0.0 0.0 0.00 0.00 0.00 99 1014.7
20260905113022 25 3 0.0 0.0 0.00 0.00 0.00 99 1014.7
20260905112518 25 3 0.0 0.0 0.00 0.00 0.00 99 1014.7
20260905112013 25 3 0.0 0.0 0.00 0.00 0.00 99 1014.6
20260905111513 25 3 0.0 0.0 0.00 0.00 0.00 99 1014.4
20260905111007 25 3 0.0 0.0 0.00 0.00 0.00 99 1014.5
20260905110506 25 3 0.0 0.0 0.00 0.00 0.00 99 1014.3
20260905110001 25 3 0.0 0.0 0.00 0.00 0.00 99 1014.0
20260905105455 25 3 0.0 0.0 0.00 0.00 0.00 99 1014.1
20260905104955 25 3 0.0 0.0 0.00 0.00 0.00 99 1014.1
20260905104451 25 3 0.0 0.0 0.00 0.00 0.00 99 1014.2
20260905103945 25 3 0.0 0.0 0.00 0.00 0.00 99 1014.1
20260905103440 25 3 0.0 0.0 0.00 0.00 0.00 99 1014.2
20260905102937 25 3 0.0 0.0 0.00 0.00 0.00 99 1014.3
20260905102432 25 3 0.0 0.0 0.00 0.00 0.00 99 1014.1
20260905101927 25 3 0.0 0.0 0.00 0.00 0.00 99 1014.0
20260905101426 25 3 0.0 0.0 0.00 0.00 0.00 99 1014.0
20260905100921 25 3 0.0 0.0 0.00 0.00 0.00 99 1014.0
20260905100417 25 7 0.0 3.2 0.00 0.00 0.00 99 1014.0
20260905095916 25 6 0.0 1.6 0.00 0.00 0.00 99 1014.0
20260905095411 25 5 0.0 1.6 0.00 0.00 0.00 99 1014.0
20260905094911 25 8 1.6 1.6 0.00 0.00 0.00 99 1013.9
20260905094407 25 1 0.0 1.6 0.00 0.00 0.00 99 1013.9
20260905093905 25 0 0.0 0.0 0.00 0.00 0.00 99 1013.9
20260905093401 26 0 0.0 0.0 0.00 0.00 0.00 98 1013.9
20260905092857 25 1 0.0 1.6 0.00 0.00 0.00 98 1014.0
20260905092356 25 359 0.0 0.0 0.00 0.00 0.00 98 1013.6
20260905091851 25 359 0.0 0.0 0.00 0.00 0.00 98 1013.7
20260905091346 26 359 0.0 0.0 0.00 0.00 0.00 98 1013.8
20260905090845 25 359 0.0 0.0 0.00 0.00 0.00 98 1013.9
20260905090341 25 359 0.0 0.0 0.00 0.00 0.00 97 1013.8
20260905085840 25 359 0.0 0.0 0.00 0.00 0.00 97 1013.7
20260905085339 26 359 0.0 0.0 0.00 0.00 0.00 97 1013.9
20260905084835 25 359 0.0 0.0 0.00 0.00 0.00 97 1013.7
20260905084334 25 359 0.0 1.6 0.00 0.00 0.00 97 1013.7
20260905083829 25 359 0.0 0.0 0.00 0.00 0.00 97 1013.9
20260905083326 25 359 0.0 0.0 0.00 0.00 0.00 97 1014.0
20260905082820 25 359 0.0 0.0 0.00 0.00 0.00 97 1013.9
20260905082317 25 359 0.0 0.0 0.00 0.00 0.00 96 1013.9
20260905081812 26 359 0.0 0.0 0.00 0.00 0.00 96 1013.8
20260905081307 25 359 0.0 0.0 0.00 0.00 0.00 96 1013.9
20260905080805 25 359 0.0 0.0 0.00 0.00 0.00 96 1014.0
20260905080300 25 359 0.0 0.0 0.00 0.00 0.00 96 1013.9
20260905075758 25 359 0.0 0.0 0.00 0.00 0.00 95 1013.9
20260905075253 25 359 0.0 0.0 0.00 0.00 0.00 95 1013.8
20260905074751 25 359 0.0 0.0 0.00 0.00 0.00 95 1013.9
20260905074248 26 359 0.0 0.0 0.00 0.00 0.00 95 1013.7
20260905073737 26 359 0.0 0.0 0.00 0.00 0.00 95 1013.7
20260905073233 26 359 0.0 0.0 0.00 0.00 0.00 94 1014.0
20260905072732 26 359 0.0 0.0 0.00 0.00 0.00 94 1013.9
20260905072227 26 359 0.0 0.0 0.00 0.00 0.00 93 1013.9
20260905071724 26 359 0.0 0.0 0.00 0.00 0.00 93 1013.9
20260905071220 26 359 0.0 0.0 0.00 0.00 0.00 92 1013.9
20260905070714 26 0 0.0 0.0 0.00 0.00 0.00 91 1014.1
20260905070211 26 358 0.0 1.6 0.00 0.00 0.00 92 1014.0
20260905065709 26 9 1.6 3.2 0.00 0.00 0.00 92 1014.2
20260905065204 26 12 1.6 1.6 0.00 0.00 0.00 93 1014.3
20260905064659 26 356 1.6 1.6 0.00 0.00 0.00 93 1014.2
20260905064154 26 356 0.0 0.0 0.00 0.00 0.00 93 1014.2
20260905063653 26 356 0.0 0.0 0.00 0.00 0.00 92 1014.1
20260905063149 26 356 0.0 0.0 0.00 0.00 0.00 92 1014.3
20260905062645 27 359 0.0 0.0 0.00 0.00 0.00 91 1014.1
20260905062144 26 30 0.0 0.0 0.00 0.00 0.00 92 1014.4
20260905061639 26 356 0.0 0.0 0.00 0.00 0.00 92 1014.3
20260905061138 26 355 0.0 0.0 0.00 0.00 0.00 92 1014.2
20260905060634 27 0 0.0 0.0 0.00 0.00 0.00 91 1014.4
20260905060131 27 7 0.0 0.0 0.00 0.00 0.00 92 1014.3
20260905055628 26 29 0.0 0.0 0.00 0.00 0.00 92 1014.3
20260905055124 26 356 0.0 0.0 0.00 0.00 0.00 92 1014.1
20260905054620 26 356 0.0 0.0 0.00 0.00 0.00 91 1014.3
20260905054115 27 356 0.0 0.0 0.00 0.00 0.00 91 1014.2
20260905053615 27 356 0.0 0.0 0.00 0.00 0.00 90 1014.2
20260905053110 27 356 0.0 0.0 0.00 0.00 0.00 89 1014.0
20260905052609 27 356 0.0 0.0 0.00 0.00 0.00 89 1014.1
20260905052104 27 356 0.0 0.0 0.00 0.00 0.00 88 1014.1
20260905051559 27 356 0.0 0.0 0.00 0.00 0.00 88 1014.1
20260905051055 27 356 0.0 0.0 0.00 0.00 0.00 87 1014.3
20260905050546 27 356 0.0 0.0 0.00 0.00 0.00 88 1014.1
20260905050043 27 355 0.0 0.0 0.00 0.00 0.00 89 1014.0
20260905045542 27 355 0.0 0.0 0.00 0.00 0.00 88 1014.0
20260905045033 27 356 0.0 0.0 0.00 0.00 0.00 88 1014.1
20260905044533 27 356 0.0 0.0 0.00 0.00 0.00 87 1014.2
20260905044033 27 356 0.0 0.0 0.00 0.00 0.00 87 1014.1
20260905043532 27 356 0.0 0.0 0.00 0.00 0.00 87 1014.3
20260905043022 27 355 0.0 0.0 0.00 0.00 0.00 86 1014.3
20260905042520 27 355 0.0 0.0 0.00 0.00 0.00 85 1014.2
20260905042016 28 356 0.0 0.0 0.00 0.00 0.00 84 1014.4
20260905041511 28 356 0.0 0.0 0.00 0.00 0.00 83 1014.5
20260905041007 28 355 0.0 0.0 0.00 0.00 0.00 82 1014.2
20260905040506 28 356 0.0 0.0 0.00 0.00 0.00 81 1014.3
20260905040005 28 356 0.0 0.0 0.00 0.00 0.00 81 1014.6
20260905035500 29 356 0.0 0.0 0.00 0.00 0.00 77 1014.5
20260905034957 28 355 0.0 0.0 0.00 0.00 0.00 78 1014.6
20260905034458 28 352 0.0 0.0 0.00 0.00 0.00 80 1014.7
20260905033957 28 358 0.0 0.0 0.00 0.00 0.00 80 1014.5
20260905033451 28 358 0.0 0.0 0.00 0.00 0.00 81 1014.5
20260905032946 28 352 0.0 0.0 0.00 0.00 0.00 80 1014.7
20260905032442 28 351 0.0 0.0 0.00 0.00 0.00 80 1014.8
20260905031936 29 351 0.0 0.0 0.00 0.00 0.00 79 1014.7
20260905031432 29 351 0.0 1.6 0.00 0.00 0.00 79 1014.8
20260905030928 30 348 0.0 1.6 0.00 0.00 0.00 76 1014.8
20260905030423 30 347 0.0 1.6 0.00 0.00 0.00 76 1014.8
20260905025922 30 322 0.0 0.0 0.00 0.00 0.00 76 1014.9
20260905025417 30 337 0.0 1.6 0.00 0.00 0.00 76 1014.8
20260905024914 30 338 0.0 0.0 0.00 0.00 0.00 75 1014.8
20260905024414 30 359 1.6 3.2 0.00 0.00 0.00 76 1014.7
20260905023910 30 293 1.6 1.6 0.00 0.00 0.00 77 1014.7
20260905023405 29 344 1.6 3.2 0.00 0.00 0.00 78 1014.7
20260905022903 29 345 0.0 1.6 0.00 0.00 0.00 79 1014.8